owner,sensor,date,latitude,longitude,vertical_datum,wind_speed,wind_to_direction,wind_speed_of_gust,qcFlag 
WAVCIS,ioos:station:WAVCIS:CSI06:1,2008-10-01T00:00:00Z,28.8667,-90.4833,10.0,8.7,289.0,,'11111222,11111222,99999999' 
WAVCIS,ioos:station:WAVCIS:CSI06:1,2008-10-01T01:00:00Z,28.8667,-90.4833,10.0,8.96,290.0,,'11111222,11111222,99999999' 
WAVCIS,ioos:station:WAVCIS:CSI06:1,2008-10-01T02:00:00Z,28.8667,-90.4833,10.0,9.09,301.0,,'11111222,11111222,99999999' 
WAVCIS,ioos:station:WAVCIS:CSI06:1,2008-10-01T03:00:00Z,28.8667,-90.4833,10.0,8.93,298.0,,'11111222,11111222,99999999' 
WAVCIS,ioos:station:WAVCIS:CSI06:1,2008-10-01T04:00:00Z,28.8667,-90.4833,10.0,7.88,293.0,,'11111222,11111222,99999999' 
WAVCIS,ioos:station:WAVCIS:CSI06:1,2008-10-01T05:00:00Z,28.8667,-90.4833,10.0,7.04,305.0,,'11111222,11111222,99999999' 
WAVCIS,ioos:station:WAVCIS:CSI06:1,2008-10-01T06:00:00Z,28.8667,-90.4833,10.0,5.012,310.0,,'11111222,11111222,99999999' 
WAVCIS,ioos:station:WAVCIS:CSI06:1,2008-10-01T07:00:00Z,28.8667,-90.4833,10.0,10.49,12.0,,'11111222,11111222,99999999' 
WAVCIS,ioos:station:WAVCIS:CSI06:1,2008-10-01T08:00:00Z,28.8667,-90.4833,10.0,9.85,20.0,,'11111222,11111222,99999999' 
WAVCIS,ioos:station:WAVCIS:CSI06:1,2008-10-01T09:00:00Z,28.8667,-90.4833,10.0,8.73,14.0,,'11111222,11111222,99999999' 
WAVCIS,ioos:station:WAVCIS:CSI06:1,2008-10-01T10:00:00Z,28.8667,-90.4833,10.0,9.05,15.0,,'11111222,11111222,99999999' 
WAVCIS,ioos:station:WAVCIS:CSI06:1,2008-10-01T11:00:00Z,28.8667,-90.4833,10.0,7.99,15.0,,'11111222,11111222,99999999' 
WAVCIS,ioos:station:WAVCIS:CSI06:1,2008-10-01T12:00:00Z,28.8667,-90.4833,10.0,6.14,8.0,,'11111222,11111222,99999999' 
WAVCIS,ioos:station:WAVCIS:CSI06:1,2008-10-01T13:00:00Z,28.8667,-90.4833,10.0,7.73,14.0,,'11111222,11111222,99999999' 
WAVCIS,ioos:station:WAVCIS:CSI06:1,2008-10-01T14:00:00Z,28.8667,-90.4833,10.0,7.77,14.0,,'11111222,11111222,99999999' 
WAVCIS,ioos:station:WAVCIS:CSI06:1,2008-10-01T15:00:00Z,28.8667,-90.4833,10.0,6.779,13.0,,'11111222,11111222,99999999' 
WAVCIS,ioos:station:WAVCIS:CSI06:1,2008-10-01T16:00:00Z,28.8667,-90.4833,10.0,6.046,9.0,,'11111222,11111222,99999999' 
WAVCIS,ioos:station:WAVCIS:CSI06:1,2008-10-01T17:00:00Z,28.8667,-90.4833,10.0,5.799,9.0,,'11111222,11111222,99999999' 
WAVCIS,ioos:station:WAVCIS:CSI06:1,2008-10-01T18:00:00Z,28.8667,-90.4833,10.0,4.039,353.0,,'11111222,11111222,99999999' 
WAVCIS,ioos:station:WAVCIS:CSI06:1,2008-10-01T19:00:00Z,28.8667,-90.4833,10.0,4.267,346.0,,'11111222,11111222,99999999' 
WAVCIS,ioos:station:WAVCIS:CSI06:1,2008-10-01T20:00:00Z,28.8667,-90.4833,10.0,3.782,350.0,,'11111222,11111222,99999999' 
WAVCIS,ioos:station:WAVCIS:CSI06:1,2008-10-01T21:00:00Z,28.8667,-90.4833,10.0,3.084,350.0,,'11111222,11111222,99999999' 
WAVCIS,ioos:station:WAVCIS:CSI06:1,2008-10-01T22:00:00Z,28.8667,-90.4833,10.0,2.972,3.0,,'11111222,11111222,99999999' 
WAVCIS,ioos:station:WAVCIS:CSI06:1,2008-10-01T23:00:00Z,28.8667,-90.4833,10.0,1.859,352.0,,'11111222,11111222,99999999' 
WAVCIS,ioos:station:WAVCIS:CSI06:1,2008-10-02T00:00:00Z,28.8667,-90.4833,10.0,1.351,300.0,,'11111222,11111222,99999999' 
WAVCIS,ioos:station:WAVCIS:CSI06:1,2008-10-02T01:00:00Z,28.8667,-90.4833,10.0,4.388,5.0,,'11111222,11111222,99999999' 
WAVCIS,ioos:station:WAVCIS:CSI06:1,2008-10-02T02:00:00Z,28.8667,-90.4833,10.0,7.27,24.0,,'11111222,11111222,99999999' 
WAVCIS,ioos:station:WAVCIS:CSI06:1,2008-10-02T03:00:00Z,28.8667,-90.4833,10.0,8.7,16.0,,'11111222,11111222,99999999' 
WAVCIS,ioos:station:WAVCIS:CSI06:1,2008-10-02T04:00:00Z,28.8667,-90.4833,10.0,8.78,16.0,,'11111222,11111222,99999999' 
WAVCIS,ioos:station:WAVCIS:CSI06:1,2008-10-02T05:00:00Z,28.8667,-90.4833,10.0,9.23,17.0,,'11111222,11111222,99999999' 
WAVCIS,ioos:station:WAVCIS:CSI06:1,2008-10-02T06:00:00Z,28.8667,-90.4833,10.0,8.92,20.0,,'11111222,11111222,99999999' 
WAVCIS,ioos:station:WAVCIS:CSI06:1,2008-10-02T07:00:00Z,28.8667,-90.4833,10.0,8.16,25.0,,'11111222,11111222,99999999' 
WAVCIS,ioos:station:WAVCIS:CSI06:1,2008-10-02T08:00:00Z,28.8667,-90.4833,10.0,8.6,34.0,,'11111222,11111222,99999999' 
WAVCIS,ioos:station:WAVCIS:CSI06:1,2008-10-02T09:00:00Z,28.8667,-90.4833,10.0,7.77,39.0,,'11111222,11111222,99999999' 
WAVCIS,ioos:station:WAVCIS:CSI06:1,2008-10-02T10:00:00Z,28.8667,-90.4833,10.0,7.01,47.0,,'11111222,11111222,99999999' 
WAVCIS,ioos:station:WAVCIS:CSI06:1,2008-10-02T11:00:00Z,28.8667,-90.4833,10.0,7.68,59.0,,'11111222,11111222,99999999' 
WAVCIS,ioos:station:WAVCIS:CSI06:1,2008-10-02T12:00:00Z,28.8667,-90.4833,10.0,6.656,63.0,,'11111222,11111222,99999999' 
WAVCIS,ioos:station:WAVCIS:CSI06:1,2008-10-02T13:00:00Z,28.8667,-90.4833,10.0,5.63,68.0,,'11111222,11111222,99999999' 
WAVCIS,ioos:station:WAVCIS:CSI06:1,2008-10-02T14:00:00Z,28.8667,-90.4833,10.0,5.217,69.0,,'11111222,11111222,99999999' 
WAVCIS,ioos:station:WAVCIS:CSI06:1,2008-10-02T15:00:00Z,28.8667,-90.4833,10.0,5.133,77.0,,'11111222,11111222,99999999' 
WAVCIS,ioos:station:WAVCIS:CSI06:1,2008-10-02T16:00:00Z,28.8667,-90.4833,10.0,5.161,80.0,,'11111222,11111222,99999999' 
WAVCIS,ioos:station:WAVCIS:CSI06:1,2008-10-02T17:00:00Z,28.8667,-90.4833,10.0,4.085,95.0,,'11111222,11111222,99999999' 
WAVCIS,ioos:station:WAVCIS:CSI06:1,2008-10-02T18:00:00Z,28.8667,-90.4833,10.0,4.734,89.0,,'11111222,11111222,99999999' 
WAVCIS,ioos:station:WAVCIS:CSI06:1,2008-10-02T19:00:00Z,28.8667,-90.4833,10.0,3.709,89.0,,'11111222,11111222,99999999' 
WAVCIS,ioos:station:WAVCIS:CSI06:1,2008-10-02T20:00:00Z,28.8667,-90.4833,10.0,2.718,88.0,,'11111222,11111222,99999999' 
WAVCIS,ioos:station:WAVCIS:CSI06:1,2008-10-02T21:00:00Z,28.8667,-90.4833,10.0,3.162,100.0,,'11111222,11111222,99999999' 
WAVCIS,ioos:station:WAVCIS:CSI06:1,2008-10-02T22:00:00Z,28.8667,-90.4833,10.0,3.125,118.0,,'11111222,11111222,99999999' 
WAVCIS,ioos:station:WAVCIS:CSI06:1,2008-10-02T23:00:00Z,28.8667,-90.4833,10.0,3.224,131.0,,'11111222,11111222,99999999' 
WAVCIS,ioos:station:WAVCIS:CSI06:1,2008-10-03T00:00:00Z,28.8667,-90.4833,10.0,2.85,134.0,,'11111222,11111222,99999999' 
WAVCIS,ioos:station:WAVCIS:CSI06:1,2008-10-03T01:00:00Z,28.8667,-90.4833,10.0,2.896,131.0,,'11111222,11111222,99999999' 
WAVCIS,ioos:station:WAVCIS:CSI06:1,2008-10-03T02:00:00Z,28.8667,-90.4833,10.0,2.651,148.0,,'11111222,11111222,99999999' 
WAVCIS,ioos:station:WAVCIS:CSI06:1,2008-10-03T03:00:00Z,28.8667,-90.4833,10.0,2.375,163.0,,'11111222,11111222,99999999' 
WAVCIS,ioos:station:WAVCIS:CSI06:1,2008-10-03T04:00:00Z,28.8667,-90.4833,10.0,2.967,155.0,,'11111222,11111222,99999999' 
WAVCIS,ioos:station:WAVCIS:CSI06:1,2008-10-03T05:00:00Z,28.8667,-90.4833,10.0,3.143,158.0,,'11111222,11111222,99999999' 
WAVCIS,ioos:station:WAVCIS:CSI06:1,2008-10-03T06:00:00Z,28.8667,-90.4833,10.0,2.04,190.0,,'11111222,11111222,99999999' 
WAVCIS,ioos:station:WAVCIS:CSI06:1,2008-10-03T07:00:00Z,28.8667,-90.4833,10.0,2.004,180.0,,'11111222,11111222,99999999' 
WAVCIS,ioos:station:WAVCIS:CSI06:1,2008-10-03T08:00:00Z,28.8667,-90.4833,10.0,3.143,173.0,,'11111222,11111222,99999999' 
WAVCIS,ioos:station:WAVCIS:CSI06:1,2008-10-03T09:00:00Z,28.8667,-90.4833,10.0,3.97,160.0,,'11111222,11111222,99999999' 
WAVCIS,ioos:station:WAVCIS:CSI06:1,2008-10-03T10:00:00Z,28.8667,-90.4833,10.0,4.745,178.0,,'11111222,11111222,99999999' 
WAVCIS,ioos:station:WAVCIS:CSI06:1,2008-10-03T11:00:00Z,28.8667,-90.4833,10.0,4.493,173.0,,'11111222,11111222,99999999' 
WAVCIS,ioos:station:WAVCIS:CSI06:1,2008-10-03T12:00:00Z,28.8667,-90.4833,10.0,4.122,175.0,,'11111222,11111222,99999999' 
WAVCIS,ioos:station:WAVCIS:CSI06:1,2008-10-03T13:00:00Z,28.8667,-90.4833,10.0,3.273,185.0,,'11111222,11111222,99999999' 
WAVCIS,ioos:station:WAVCIS:CSI06:1,2008-10-03T14:00:00Z,28.8667,-90.4833,10.0,3.334,179.0,,'11111222,11111222,99999999' 
WAVCIS,ioos:station:WAVCIS:CSI06:1,2008-10-03T15:00:00Z,28.8667,-90.4833,10.0,3.585,166.0,,'11111222,11111222,99999999' 
WAVCIS,ioos:station:WAVCIS:CSI06:1,2008-10-03T16:00:00Z,28.8667,-90.4833,10.0,0.023,86.0,,'11111222,11111222,99999999' 
WAVCIS,ioos:station:WAVCIS:CSI06:1,2008-10-03T17:00:00Z,28.8667,-90.4833,10.0,4.081,155.0,,'11111222,11111222,99999999' 
WAVCIS,ioos:station:WAVCIS:CSI06:1,2008-10-03T18:00:00Z,28.8667,-90.4833,10.0,4.114,159.0,,'11111222,11111222,99999999' 
WAVCIS,ioos:station:WAVCIS:CSI06:1,2008-10-03T19:00:00Z,28.8667,-90.4833,10.0,3.455,151.0,,'11111222,11111222,99999999' 
WAVCIS,ioos:station:WAVCIS:CSI06:1,2008-10-03T20:00:00Z,28.8667,-90.4833,10.0,2.649,173.0,,'11111222,11111222,99999999' 
WAVCIS,ioos:station:WAVCIS:CSI06:1,2008-10-03T21:00:00Z,28.8667,-90.4833,10.0,2.889,150.0,,'11111222,11111222,99999999' 
WAVCIS,ioos:station:WAVCIS:CSI06:1,2008-10-03T22:00:00Z,28.8667,-90.4833,10.0,2.34,150.0,,'11111222,11111222,99999999' 
WAVCIS,ioos:station:WAVCIS:CSI06:1,2008-10-03T23:00:00Z,28.8667,-90.4833,10.0,3.064,162.0,,'11111222,11111222,99999999' 
WAVCIS,ioos:station:WAVCIS:CSI06:1,2008-10-04T00:00:00Z,28.8667,-90.4833,10.0,2.743,154.0,,'11111222,11111222,99999999' 
WAVCIS,ioos:station:WAVCIS:CSI06:1,2008-10-04T01:00:00Z,28.8667,-90.4833,10.0,3.35,144.0,,'11111222,11111222,99999999' 
WAVCIS,ioos:station:WAVCIS:CSI06:1,2008-10-04T02:00:00Z,28.8667,-90.4833,10.0,3.691,152.0,,'11111222,11111222,99999999' 
WAVCIS,ioos:station:WAVCIS:CSI06:1,2008-10-04T03:00:00Z,28.8667,-90.4833,10.0,4.054,150.0,,'11111222,11111222,99999999' 
WAVCIS,ioos:station:WAVCIS:CSI06:1,2008-10-04T04:00:00Z,28.8667,-90.4833,10.0,4.229,153.0,,'11111222,11111222,99999999' 
WAVCIS,ioos:station:WAVCIS:CSI06:1,2008-10-04T05:00:00Z,28.8667,-90.4833,10.0,3.691,160.0,,'11111222,11111222,99999999' 
WAVCIS,ioos:station:WAVCIS:CSI06:1,2008-10-04T06:00:00Z,28.8667,-90.4833,10.0,3.622,148.0,,'11111222,11111222,99999999' 
WAVCIS,ioos:station:WAVCIS:CSI06:1,2008-10-04T07:00:00Z,28.8667,-90.4833,10.0,2.864,145.0,,'11111222,11111222,99999999' 
WAVCIS,ioos:station:WAVCIS:CSI06:1,2008-10-04T08:00:00Z,28.8667,-90.4833,10.0,2.733,133.0,,'11111222,11111222,99999999' 
WAVCIS,ioos:station:WAVCIS:CSI06:1,2008-10-04T09:00:00Z,28.8667,-90.4833,10.0,2.706,129.0,,'11111222,11111222,99999999' 
WAVCIS,ioos:station:WAVCIS:CSI06:1,2008-10-04T10:00:00Z,28.8667,-90.4833,10.0,1.958,118.0,,'11111222,11111222,99999999' 
WAVCIS,ioos:station:WAVCIS:CSI06:1,2008-10-04T11:00:00Z,28.8667,-90.4833,10.0,1.614,91.0,,'11111222,11111222,99999999' 
WAVCIS,ioos:station:WAVCIS:CSI06:1,2008-10-04T13:00:00Z,28.8667,-90.4833,10.0,2.67,70.0,,'11111222,11111222,99999999' 
WAVCIS,ioos:station:WAVCIS:CSI06:1,2008-10-04T14:00:00Z,28.8667,-90.4833,10.0,3.61,74.0,,'11111222,11111222,99999999' 
WAVCIS,ioos:station:WAVCIS:CSI06:1,2008-10-04T15:00:00Z,28.8667,-90.4833,10.0,4.62,80.0,,'11111222,11111222,99999999' 
WAVCIS,ioos:station:WAVCIS:CSI06:1,2008-10-04T16:00:00Z,28.8667,-90.4833,10.0,4.609,66.0,,'11111222,11111222,99999999' 
WAVCIS,ioos:station:WAVCIS:CSI06:1,2008-10-04T17:00:00Z,28.8667,-90.4833,10.0,5.098,75.0,,'11111222,11111222,99999999' 
WAVCIS,ioos:station:WAVCIS:CSI06:1,2008-10-04T18:00:00Z,28.8667,-90.4833,10.0,5.65,64.0,,'11111222,11111222,99999999' 
WAVCIS,ioos:station:WAVCIS:CSI06:1,2008-10-04T19:00:00Z,28.8667,-90.4833,10.0,5.658,69.0,,'11111222,11111222,99999999' 
WAVCIS,ioos:station:WAVCIS:CSI06:1,2008-10-04T20:00:00Z,28.8667,-90.4833,10.0,5.858,63.0,,'11111222,11111222,99999999' 
WAVCIS,ioos:station:WAVCIS:CSI06:1,2008-10-04T21:00:00Z,28.8667,-90.4833,10.0,6.253,59.0,,'11111222,11111222,99999999' 
WAVCIS,ioos:station:WAVCIS:CSI06:1,2008-10-04T22:00:00Z,28.8667,-90.4833,10.0,6.358,66.0,,'11111222,11111222,99999999' 
WAVCIS,ioos:station:WAVCIS:CSI06:1,2008-10-04T23:00:00Z,28.8667,-90.4833,10.0,6.447,73.0,,'11111222,11111222,99999999' 
WAVCIS,ioos:station:WAVCIS:CSI06:1,2008-10-05T00:00:00Z,28.8667,-90.4833,10.0,6.89,82.0,,'11111222,11111222,99999999' 
WAVCIS,ioos:station:WAVCIS:CSI06:1,2008-10-05T01:00:00Z,28.8667,-90.4833,10.0,7.71,83.0,,'11111222,11111222,99999999' 
WAVCIS,ioos:station:WAVCIS:CSI06:1,2008-10-05T03:00:00Z,28.8667,-90.4833,10.0,7.92,85.0,,'11111222,11111222,99999999' 
WAVCIS,ioos:station:WAVCIS:CSI06:1,2008-10-05T04:00:00Z,28.8667,-90.4833,10.0,9.62,94.0,,'11111222,11111222,99999999' 
WAVCIS,ioos:station:WAVCIS:CSI06:1,2008-10-05T05:00:00Z,28.8667,-90.4833,10.0,8.67,89.0,,'11111222,11111222,99999999' 
WAVCIS,ioos:station:WAVCIS:CSI06:1,2008-10-05T06:00:00Z,28.8667,-90.4833,10.0,7.6,80.0,,'11111222,11111222,99999999' 
WAVCIS,ioos:station:WAVCIS:CSI06:1,2008-10-05T07:00:00Z,28.8667,-90.4833,10.0,7.59,78.0,,'11111222,11111222,99999999' 
WAVCIS,ioos:station:WAVCIS:CSI06:1,2008-10-05T08:00:00Z,28.8667,-90.4833,10.0,8.25,86.0,,'11111222,11111222,99999999' 
WAVCIS,ioos:station:WAVCIS:CSI06:1,2008-10-05T09:00:00Z,28.8667,-90.4833,10.0,8.28,83.0,,'11111222,11111222,99999999' 
WAVCIS,ioos:station:WAVCIS:CSI06:1,2008-10-05T10:00:00Z,28.8667,-90.4833,10.0,8.17,79.0,,'11111222,11111222,99999999' 
WAVCIS,ioos:station:WAVCIS:CSI06:1,2008-10-05T11:00:00Z,28.8667,-90.4833,10.0,8.75,66.0,,'11111222,11111222,99999999' 
WAVCIS,ioos:station:WAVCIS:CSI06:1,2008-10-05T12:00:00Z,28.8667,-90.4833,10.0,9.55,64.0,,'11111222,11111222,99999999' 
WAVCIS,ioos:station:WAVCIS:CSI06:1,2008-10-05T13:00:00Z,28.8667,-90.4833,10.0,10.46,75.0,,'11111222,11111222,99999999' 
WAVCIS,ioos:station:WAVCIS:CSI06:1,2008-10-05T14:00:00Z,28.8667,-90.4833,10.0,9.39,73.0,,'11111222,11111222,99999999' 
WAVCIS,ioos:station:WAVCIS:CSI06:1,2008-10-05T15:00:00Z,28.8667,-90.4833,10.0,9.71,82.0,,'11111222,11111222,99999999' 
WAVCIS,ioos:station:WAVCIS:CSI06:1,2008-10-05T16:00:00Z,28.8667,-90.4833,10.0,9.55,74.0,,'11111222,11111222,99999999' 
WAVCIS,ioos:station:WAVCIS:CSI06:1,2008-10-05T17:00:00Z,28.8667,-90.4833,10.0,10.52,69.0,,'11111222,11111222,99999999' 
WAVCIS,ioos:station:WAVCIS:CSI06:1,2008-10-05T18:00:00Z,28.8667,-90.4833,10.0,10.64,90.0,,'11111222,11111222,99999999' 
WAVCIS,ioos:station:WAVCIS:CSI06:1,2008-10-05T19:00:00Z,28.8667,-90.4833,10.0,10.58,106.0,,'11111222,11111222,99999999' 
WAVCIS,ioos:station:WAVCIS:CSI06:1,2008-10-05T20:00:00Z,28.8667,-90.4833,10.0,10.72,101.0,,'11111222,11111222,99999999' 
WAVCIS,ioos:station:WAVCIS:CSI06:1,2008-10-05T21:00:00Z,28.8667,-90.4833,10.0,11.33,99.0,,'11111222,11111222,99999999' 
WAVCIS,ioos:station:WAVCIS:CSI06:1,2008-10-05T22:00:00Z,28.8667,-90.4833,10.0,12.13,100.0,,'11111222,11111222,99999999' 
WAVCIS,ioos:station:WAVCIS:CSI06:1,2008-10-05T23:00:00Z,28.8667,-90.4833,10.0,13.17,99.0,,'11111222,11111222,99999999' 
WAVCIS,ioos:station:WAVCIS:CSI06:1,2008-10-06T00:00:00Z,28.8667,-90.4833,10.0,13.29,96.0,,'11111222,11111222,99999999' 
WAVCIS,ioos:station:WAVCIS:CSI06:1,2008-10-06T01:00:00Z,28.8667,-90.4833,10.0,14.24,93.0,,'11111222,11111222,99999999' 
WAVCIS,ioos:station:WAVCIS:CSI06:1,2008-10-06T02:00:00Z,28.8667,-90.4833,10.0,13.5,92.0,,'11111222,11111222,99999999' 
WAVCIS,ioos:station:WAVCIS:CSI06:1,2008-10-06T03:00:00Z,28.8667,-90.4833,10.0,11.8,93.0,,'11111222,11111222,99999999' 
WAVCIS,ioos:station:WAVCIS:CSI06:1,2008-10-06T04:00:00Z,28.8667,-90.4833,10.0,12.37,103.0,,'11111222,11111222,99999999' 
WAVCIS,ioos:station:WAVCIS:CSI06:1,2008-10-06T05:00:00Z,28.8667,-90.4833,10.0,12.66,108.0,,'11111222,11111222,99999999' 
WAVCIS,ioos:station:WAVCIS:CSI06:1,2008-10-06T06:00:00Z,28.8667,-90.4833,10.0,10.82,111.0,,'11111222,11111222,99999999' 
WAVCIS,ioos:station:WAVCIS:CSI06:1,2008-10-06T07:00:00Z,28.8667,-90.4833,10.0,10.22,109.0,,'11111222,11111222,99999999' 
WAVCIS,ioos:station:WAVCIS:CSI06:1,2008-10-06T08:00:00Z,28.8667,-90.4833,10.0,10.59,107.0,,'11111222,11111222,99999999' 
WAVCIS,ioos:station:WAVCIS:CSI06:1,2008-10-06T09:00:00Z,28.8667,-90.4833,10.0,10.19,108.0,,'11111222,11111222,99999999' 
WAVCIS,ioos:station:WAVCIS:CSI06:1,2008-10-06T10:00:00Z,28.8667,-90.4833,10.0,10.34,106.0,,'11111222,11111222,99999999' 
WAVCIS,ioos:station:WAVCIS:CSI06:1,2008-10-06T11:00:00Z,28.8667,-90.4833,10.0,10.46,107.0,,'11111222,11111222,99999999' 
WAVCIS,ioos:station:WAVCIS:CSI06:1,2008-10-06T12:00:00Z,28.8667,-90.4833,10.0,10.11,102.0,,'11111222,11111222,99999999' 
WAVCIS,ioos:station:WAVCIS:CSI06:1,2008-10-06T13:00:00Z,28.8667,-90.4833,10.0,8.74,117.0,,'11111222,11111222,99999999' 
WAVCIS,ioos:station:WAVCIS:CSI06:1,2008-10-06T14:00:00Z,28.8667,-90.4833,10.0,8.69,121.0,,'11111222,11111222,99999999' 
WAVCIS,ioos:station:WAVCIS:CSI06:1,2008-10-06T15:00:00Z,28.8667,-90.4833,10.0,6.961,134.0,,'11111222,11111222,99999999' 
WAVCIS,ioos:station:WAVCIS:CSI06:1,2008-10-06T16:00:00Z,28.8667,-90.4833,10.0,4.928,122.0,,'11111222,11111222,99999999' 
WAVCIS,ioos:station:WAVCIS:CSI06:1,2008-10-06T17:00:00Z,28.8667,-90.4833,10.0,4.187,113.0,,'11111222,11111222,99999999' 
WAVCIS,ioos:station:WAVCIS:CSI06:1,2008-10-06T18:00:00Z,28.8667,-90.4833,10.0,3.435,117.0,,'11111222,11111222,99999999' 
WAVCIS,ioos:station:WAVCIS:CSI06:1,2008-10-06T19:00:00Z,28.8667,-90.4833,10.0,3.169,102.0,,'11111222,11111222,99999999' 
WAVCIS,ioos:station:WAVCIS:CSI06:1,2008-10-06T20:00:00Z,28.8667,-90.4833,10.0,4.89,124.0,,'11111222,11111222,99999999' 
WAVCIS,ioos:station:WAVCIS:CSI06:1,2008-10-06T21:00:00Z,28.8667,-90.4833,10.0,4.065,141.0,,'11111222,11111222,99999999' 
WAVCIS,ioos:station:WAVCIS:CSI06:1,2008-10-06T22:00:00Z,28.8667,-90.4833,10.0,3.905,143.0,,'11111222,11111222,99999999' 
WAVCIS,ioos:station:WAVCIS:CSI06:1,2008-10-06T23:00:00Z,28.8667,-90.4833,10.0,4.315,107.0,,'11111222,11111222,99999999' 
WAVCIS,ioos:station:WAVCIS:CSI06:1,2008-10-07T00:00:00Z,28.8667,-90.4833,10.0,5.105,117.0,,'11111222,11111222,99999999' 
WAVCIS,ioos:station:WAVCIS:CSI06:1,2008-10-07T01:00:00Z,28.8667,-90.4833,10.0,5.098,120.0,,'11111222,11111222,99999999' 
WAVCIS,ioos:station:WAVCIS:CSI06:1,2008-10-07T02:00:00Z,28.8667,-90.4833,10.0,5.369,137.0,,'11111222,11111222,99999999' 
WAVCIS,ioos:station:WAVCIS:CSI06:1,2008-10-07T03:00:00Z,28.8667,-90.4833,10.0,5.679,125.0,,'11111222,11111222,99999999' 
WAVCIS,ioos:station:WAVCIS:CSI06:1,2008-10-07T04:00:00Z,28.8667,-90.4833,10.0,5.712,127.0,,'11111222,11111222,99999999' 
WAVCIS,ioos:station:WAVCIS:CSI06:1,2008-10-07T05:00:00Z,28.8667,-90.4833,10.0,6.57,128.0,,'11111222,11111222,99999999' 
WAVCIS,ioos:station:WAVCIS:CSI06:1,2008-10-07T06:00:00Z,28.8667,-90.4833,10.0,7.58,127.0,,'11111222,11111222,99999999' 
WAVCIS,ioos:station:WAVCIS:CSI06:1,2008-10-07T07:00:00Z,28.8667,-90.4833,10.0,6.979,136.0,,'11111222,11111222,99999999' 
WAVCIS,ioos:station:WAVCIS:CSI06:1,2008-10-07T08:00:00Z,28.8667,-90.4833,10.0,6.892,142.0,,'11111222,11111222,99999999' 
WAVCIS,ioos:station:WAVCIS:CSI06:1,2008-10-07T09:00:00Z,28.8667,-90.4833,10.0,4.842,148.0,,'11111222,11111222,99999999' 
WAVCIS,ioos:station:WAVCIS:CSI06:1,2008-10-07T10:00:00Z,28.8667,-90.4833,10.0,3.944,142.0,,'11111222,11111222,99999999' 
WAVCIS,ioos:station:WAVCIS:CSI06:1,2008-10-07T11:00:00Z,28.8667,-90.4833,10.0,3.545,145.0,,'11111222,11111222,99999999' 
WAVCIS,ioos:station:WAVCIS:CSI06:1,2008-10-07T12:00:00Z,28.8667,-90.4833,10.0,3.339,136.0,,'11111222,11111222,99999999' 
WAVCIS,ioos:station:WAVCIS:CSI06:1,2008-10-07T13:00:00Z,28.8667,-90.4833,10.0,2.662,157.0,,'11111222,11111222,99999999' 
WAVCIS,ioos:station:WAVCIS:CSI06:1,2008-10-07T14:00:00Z,28.8667,-90.4833,10.0,1.778,154.0,,'11111222,11111222,99999999' 
WAVCIS,ioos:station:WAVCIS:CSI06:1,2008-10-07T15:00:00Z,28.8667,-90.4833,10.0,2.809,153.0,,'11111222,11111222,99999999' 
WAVCIS,ioos:station:WAVCIS:CSI06:1,2008-10-07T16:00:00Z,28.8667,-90.4833,10.0,2.214,159.0,,'11111222,11111222,99999999' 
WAVCIS,ioos:station:WAVCIS:CSI06:1,2008-10-07T17:00:00Z,28.8667,-90.4833,10.0,2.339,135.0,,'11111222,11111222,99999999' 
WAVCIS,ioos:station:WAVCIS:CSI06:1,2008-10-07T18:00:00Z,28.8667,-90.4833,10.0,2.336,151.0,,'11111222,11111222,99999999' 
WAVCIS,ioos:station:WAVCIS:CSI06:1,2008-10-07T19:00:00Z,28.8667,-90.4833,10.0,3.507,202.0,,'11111222,11111222,99999999' 
WAVCIS,ioos:station:WAVCIS:CSI06:1,2008-10-07T20:00:00Z,28.8667,-90.4833,10.0,3.816,229.0,,'11111222,11111222,99999999' 
WAVCIS,ioos:station:WAVCIS:CSI06:1,2008-10-07T21:00:00Z,28.8667,-90.4833,10.0,3.518,253.0,,'11111222,11111222,99999999' 
WAVCIS,ioos:station:WAVCIS:CSI06:1,2008-10-07T22:00:00Z,28.8667,-90.4833,10.0,4.178,250.0,,'11111222,11111222,99999999' 
WAVCIS,ioos:station:WAVCIS:CSI06:1,2008-10-07T23:00:00Z,28.8667,-90.4833,10.0,3.996,261.0,,'11111222,11111222,99999999' 
WAVCIS,ioos:station:WAVCIS:CSI06:1,2008-10-08T00:00:00Z,28.8667,-90.4833,10.0,1.343,256.0,,'11111222,11111222,99999999' 
WAVCIS,ioos:station:WAVCIS:CSI06:1,2008-10-08T01:00:00Z,28.8667,-90.4833,10.0,2.515,83.0,,'11111222,11111222,99999999' 
WAVCIS,ioos:station:WAVCIS:CSI06:1,2008-10-08T02:00:00Z,28.8667,-90.4833,10.0,10.92,122.0,,'11111222,11111222,99999999' 
WAVCIS,ioos:station:WAVCIS:CSI06:1,2008-10-08T03:00:00Z,28.8667,-90.4833,10.0,11.03,122.0,,'11111222,11111222,99999999' 
WAVCIS,ioos:station:WAVCIS:CSI06:1,2008-10-08T04:00:00Z,28.8667,-90.4833,10.0,9.62,112.0,,'11111222,11111222,99999999' 
WAVCIS,ioos:station:WAVCIS:CSI06:1,2008-10-08T05:00:00Z,28.8667,-90.4833,10.0,7.62,111.0,,'11111222,11111222,99999999' 
WAVCIS,ioos:station:WAVCIS:CSI06:1,2008-10-08T06:00:00Z,28.8667,-90.4833,10.0,5.784,126.0,,'11111222,11111222,99999999' 
WAVCIS,ioos:station:WAVCIS:CSI06:1,2008-10-08T07:00:00Z,28.8667,-90.4833,10.0,5.574,173.0,,'11111222,11111222,99999999' 
WAVCIS,ioos:station:WAVCIS:CSI06:1,2008-10-08T08:00:00Z,28.8667,-90.4833,10.0,5.301,218.0,,'11111222,11111222,99999999' 
WAVCIS,ioos:station:WAVCIS:CSI06:1,2008-10-08T09:00:00Z,28.8667,-90.4833,10.0,4.549,229.0,,'11111222,11111222,99999999' 
WAVCIS,ioos:station:WAVCIS:CSI06:1,2008-10-08T10:00:00Z,28.8667,-90.4833,10.0,5.558,262.0,,'11111222,11111222,99999999' 
WAVCIS,ioos:station:WAVCIS:CSI06:1,2008-10-08T11:00:00Z,28.8667,-90.4833,10.0,10.32,313.0,,'11111222,11111222,99999999' 
WAVCIS,ioos:station:WAVCIS:CSI06:1,2008-10-08T12:00:00Z,28.8667,-90.4833,10.0,9.1,330.0,,'11111222,11111222,99999999' 
WAVCIS,ioos:station:WAVCIS:CSI06:1,2008-10-08T13:00:00Z,28.8667,-90.4833,10.0,8.63,331.0,,'11111222,11111222,99999999' 
WAVCIS,ioos:station:WAVCIS:CSI06:1,2008-10-08T14:00:00Z,28.8667,-90.4833,10.0,7.85,330.0,,'11111222,11111222,99999999' 
WAVCIS,ioos:station:WAVCIS:CSI06:1,2008-10-08T15:00:00Z,28.8667,-90.4833,10.0,7.75,330.0,,'11111222,11111222,99999999' 
WAVCIS,ioos:station:WAVCIS:CSI06:1,2008-10-08T16:00:00Z,28.8667,-90.4833,10.0,7.03,327.0,,'11111222,11111222,99999999' 
WAVCIS,ioos:station:WAVCIS:CSI06:1,2008-10-08T17:00:00Z,28.8667,-90.4833,10.0,7.24,322.0,,'11111222,11111222,99999999' 
WAVCIS,ioos:station:WAVCIS:CSI06:1,2008-10-08T18:00:00Z,28.8667,-90.4833,10.0,7.67,319.0,,'11111222,11111222,99999999' 
WAVCIS,ioos:station:WAVCIS:CSI06:1,2008-10-08T19:00:00Z,28.8667,-90.4833,10.0,8.44,313.0,,'11111222,11111222,99999999' 
WAVCIS,ioos:station:WAVCIS:CSI06:1,2008-10-08T20:00:00Z,28.8667,-90.4833,10.0,8.19,321.0,,'11111222,11111222,99999999' 
WAVCIS,ioos:station:WAVCIS:CSI06:1,2008-10-08T21:00:00Z,28.8667,-90.4833,10.0,6.659,314.0,,'11111222,11111222,99999999' 
WAVCIS,ioos:station:WAVCIS:CSI06:1,2008-10-08T22:00:00Z,28.8667,-90.4833,10.0,6.796,323.0,,'11111222,11111222,99999999' 
WAVCIS,ioos:station:WAVCIS:CSI06:1,2008-10-08T23:00:00Z,28.8667,-90.4833,10.0,7.43,321.0,,'11111222,11111222,99999999' 
WAVCIS,ioos:station:WAVCIS:CSI06:1,2008-10-09T00:00:00Z,28.8667,-90.4833,10.0,6.846,328.0,,'11111222,11111222,99999999' 
WAVCIS,ioos:station:WAVCIS:CSI06:1,2008-10-09T01:00:00Z,28.8667,-90.4833,10.0,6.956,325.0,,'11111222,11111222,99999999' 
WAVCIS,ioos:station:WAVCIS:CSI06:1,2008-10-09T02:00:00Z,28.8667,-90.4833,10.0,6.645,335.0,,'11111222,11111222,99999999' 
WAVCIS,ioos:station:WAVCIS:CSI06:1,2008-10-09T03:00:00Z,28.8667,-90.4833,10.0,6.617,11.0,,'11111222,11111222,99999999' 
WAVCIS,ioos:station:WAVCIS:CSI06:1,2008-10-09T04:00:00Z,28.8667,-90.4833,10.0,8.79,13.0,,'11111222,11111222,99999999' 
WAVCIS,ioos:station:WAVCIS:CSI06:1,2008-10-09T05:00:00Z,28.8667,-90.4833,10.0,7.64,17.0,,'11111222,11111222,99999999' 
WAVCIS,ioos:station:WAVCIS:CSI06:1,2008-10-09T06:00:00Z,28.8667,-90.4833,10.0,6.99,19.0,,'11111222,11111222,99999999' 
WAVCIS,ioos:station:WAVCIS:CSI06:1,2008-10-09T07:00:00Z,28.8667,-90.4833,10.0,5.184,24.0,,'11111222,11111222,99999999' 